�������l�o���
Date,Time,MP-1(��Sv/h),MP-2(��Sv/h),MP-3(��Sv/h),MP-4(��Sv/h),MP-5(��Sv/h),MP-6(��Sv/h),MP-7(��Sv/h),MP-8(��Sv/h),����,����(m/s),���J
2021/06/26,00:00,0.621,0.915,0.585,1.117,0.800,0.369,0.647,0.604,��,4.4,��
2021/06/26,00:10,0.620,0.914,0.586,1.118,0.803,0.370,0.645,0.602,��,5.1,��
2021/06/26,00:20,0.619,0.917,0.587,1.118,0.801,0.368,0.646,0.602,��,6.0,��
2021/06/26,00:30,0.620,0.914,0.585,1.117,0.800,0.370,0.647,0.603,��,6.1,��
2021/06/26,00:40,0.621,0.915,0.586,1.117,0.802,0.369,0.646,0.603,��,5.1,��
2021/06/26,00:50,0.621,0.914,0.585,1.119,0.801,0.369,0.645,0.603,��,5.8,��
2021/06/26,01:00,0.621,0.914,0.587,1.120,0.802,0.370,0.646,0.603,��,6.0,��
2021/06/26,01:10,0.619,0.914,0.586,1.118,0.801,0.369,0.646,0.602,��,6.0,��
2021/06/26,01:20,0.618,0.914,0.587,1.121,0.803,0.369,0.646,0.601,��,6.2,��
2021/06/26,01:30,0.618,0.915,0.586,1.118,0.801,0.371,0.646,0.603,��,6.3,��
2021/06/26,01:40,0.620,0.914,0.586,1.117,0.802,0.369,0.647,0.602,��쐼,5.9,��
2021/06/26,01:50,0.619,0.914,0.586,1.118,0.802,0.369,0.647,0.603,��,5.8,��
2021/06/26,02:00,0.620,0.915,0.586,1.117,0.801,0.370,0.645,0.603,��쐼,4.7,��
2021/06/26,02:10,0.618,0.916,0.586,1.119,0.800,0.369,0.646,0.603,��,4.9,��
2021/06/26,02:20,0.619,0.913,0.588,1.118,0.801,0.369,0.646,0.603,��,4.3,��
2021/06/26,02:30,0.619,0.914,0.585,1.120,0.802,0.369,0.646,0.604,��쐼,3.6,��
2021/06/26,02:40,0.620,0.915,0.587,1.117,0.803,0.370,0.646,0.604,��쐼,2.5,��
2021/06/26,02:50,0.620,0.915,0.586,1.120,0.803,0.370,0.648,0.603,��쐼,1.1,��
2021/06/26,03:00,0.621,0.912,0.588,1.121,0.802,0.370,0.646,0.602,�쐼,0.6,��
2021/06/26,03:10,0.619,0.915,0.586,1.119,0.800,0.370,0.646,0.602,��쐼,1.1,��
2021/06/26,03:20,0.621,0.913,0.585,1.120,0.800,0.371,0.646,0.603,��,1.7,��
2021/06/26,03:30,0.622,0.914,0.587,1.118,0.802,0.369,0.646,0.603,��,2.2,��
2021/06/26,03:40,0.620,0.915,0.587,1.121,0.802,0.370,0.646,0.603,��쐼,2.2,��
2021/06/26,03:50,0.621,0.915,0.586,1.118,0.803,0.370,0.647,0.604,��쓌,1.9,��
2021/06/26,04:00,0.619,0.915,0.587,1.120,0.802,0.370,0.647,0.602,��,1.4,��
2021/06/26,04:10,0.622,0.914,0.587,1.119,0.801,0.370,0.646,0.605,��쐼,0.9,��
2021/06/26,04:20,0.621,0.915,0.587,1.120,0.802,0.370,0.646,0.604,���쐼,1.5,��
2021/06/26,04:30,0.621,0.915,0.586,1.117,0.801,0.370,0.648,0.603,��,1.2,��
2021/06/26,04:40,0.621,0.914,0.587,1.119,0.802,0.371,0.647,0.605,���쐼,1.2,��
2021/06/26,04:50,0.622,0.915,0.586,1.119,0.802,0.369,0.646,0.603,�쐼,1.2,��
2021/06/26,05:00,0.621,0.916,0.586,1.117,0.801,0.371,0.646,0.604,��쐼,0.6,��
2021/06/26,05:10,0.621,0.916,0.587,1.120,0.802,0.369,0.646,0.604,-,CALM,�L
2021/06/26,05:20,0.622,0.915,0.587,1.120,0.802,0.370,0.647,0.603,-,CALM,�L
2021/06/26,05:30,0.620,0.916,0.588,1.120,0.803,0.369,0.646,0.603,���k��,0.6,�L
2021/06/26,05:40,0.620,0.917,0.587,1.122,0.803,0.370,0.646,0.603,-,CALM,�L
2021/06/26,05:50,0.622,0.915,0.588,1.119,0.802,0.372,0.645,0.604,-,CALM,�L
2021/06/26,06:00,0.621,0.915,0.588,1.121,0.804,0.371,0.646,0.605,-,CALM,�L
2021/06/26,06:10,0.623,0.916,0.588,1.121,0.801,0.371,0.646,0.603,-,CALM,�L
2021/06/26,06:20,0.621,0.915,0.587,1.122,0.802,0.370,0.647,0.603,�k�k��,1.4,�L
2021/06/26,06:30,0.621,0.915,0.588,1.120,0.801,0.372,0.646,0.604,�k�k��,2.3,�L
2021/06/26,06:40,0.619,0.913,0.587,1.121,0.802,0.371,0.645,0.605,�k�k��,2.0,�L
2021/06/26,06:50,0.622,0.914,0.588,1.120,0.800,0.369,0.647,0.604,�k�k��,2.0,�L
2021/06/26,07:00,0.621,0.911,0.587,1.120,0.801,0.371,0.648,0.605,�k��,0.9,��
2021/06/26,07:10,0.619,0.913,0.585,1.118,0.798,0.370,0.645,0.602,�k��,1.7,��
2021/06/26,07:20,0.621,0.910,0.585,1.119,0.801,0.370,0.647,0.603,�k�k��,1.9,�L
2021/06/26,07:30,0.618,0.913,0.586,1.119,0.800,0.370,0.646,0.603,�k�k��,1.9,��
2021/06/26,07:40,0.619,0.912,0.588,1.119,0.799,0.369,0.645,0.604,�k�k��,1.5,��
2021/06/26,07:50,0.620,0.911,0.586,1.117,0.799,0.369,0.645,0.603,�k,1.2,��
2021/06/26,08:00,0.618,0.911,0.585,1.118,0.798,0.369,0.645,0.602,-,CALM,��
2021/06/26,08:10,0.617,0.910,0.585,1.119,0.797,0.369,0.646,0.604,-,CALM,��
2021/06/26,08:20,0.617,0.908,0.585,1.121,0.798,0.368,0.644,0.603,���쓌,0.6,��
2021/06/26,08:30,0.616,0.907,0.587,1.120,0.796,0.369,0.643,0.601,-,CALM,��
2021/06/26,08:40,0.615,0.908,0.586,1.120,0.799,0.368,0.644,0.600,��,0.6,��
2021/06/26,08:50,0.617,0.910,0.585,1.118,0.798,0.369,0.645,0.600,���k��,0.6,�L
2021/06/26,09:00,0.618,0.910,0.586,1.119,0.797,0.370,0.643,0.601,���k��,0.9,��
2021/06/26,09:10,0.620,0.911,0.585,1.122,0.799,0.368,0.647,0.601,-,CALM,�L
2021/06/26,09:20,0.619,0.908,0.586,1.120,0.797,0.370,0.644,0.601,��,0.6,��
2021/06/26,09:30,0.618,0.909,0.585,1.118,0.798,0.368,0.645,0.602,�쓌,0.9,��
2021/06/26,09:40,0.620,0.910,0.585,1.119,0.802,0.367,0.645,0.602,�k�k��,1.2,��
2021/06/26,09:50,0.619,0.910,0.585,1.120,0.801,0.368,0.646,0.601,�k�k��,1.2,��
2021/06/26,10:00,0.621,0.912,0.586,1.120,0.801,0.369,0.645,0.601,�k�k��,1.5,��
2021/06/26,10:10,0.620,0.912,0.586,1.120,0.801,0.368,0.646,0.601,���k��,2.3,��
2021/06/26,10:20,0.620,0.912,0.586,1.121,0.802,0.368,0.645,0.601,�k��,2.3,��
2021/06/26,10:30,0.619,0.914,0.586,1.122,0.799,0.369,0.647,0.602,���k��,2.3,��
2021/06/26,10:40,0.621,0.914,0.586,1.122,0.803,0.369,0.647,0.601,���k��,2.6,��
2021/06/26,10:50,0.620,0.915,0.585,1.119,0.800,0.370,0.646,0.602,���k��,2.2,��
2021/06/26,11:00,0.621,0.914,0.586,1.121,0.803,0.369,0.645,0.603,���k��,2.3,��
2021/06/26,11:10,0.621,0.915,0.586,1.118,0.803,0.369,0.647,0.601,���쓌,2.8,��
2021/06/26,11:20,0.623,0.916,0.588,1.120,0.801,0.371,0.645,0.602,���쓌,2.3,��
2021/06/26,11:30,0.621,0.918,0.588,1.119,0.802,0.369,0.646,0.602,�쓌,2.5,��
2021/06/26,11:40,0.621,0.915,0.587,1.119,0.803,0.370,0.646,0.604,�쓌,2.3,��
2021/06/26,11:50,0.623,0.917,0.586,1.121,0.802,0.369,0.646,0.603,�쓌,3.0,��
2021/06/26,12:00,0.622,0.919,0.587,1.120,0.806,0.368,0.647,0.602,�쓌,2.3,��
2021/06/26,12:10,0.622,0.917,0.586,1.120,0.803,0.370,0.646,0.601,�쓌,3.1,��
2021/06/26,12:20,0.621,0.917,0.587,1.120,0.804,0.371,0.648,0.602,�쓌,3.1,��
2021/06/26,12:30,0.623,0.920,0.588,1.121,0.804,0.371,0.647,0.603,�쓌,2.8,��
2021/06/26,12:40,0.624,0.920,0.586,1.122,0.806,0.372,0.646,0.603,�쓌,3.6,��
2021/06/26,12:50,0.623,0.918,0.588,1.121,0.804,0.370,0.648,0.602,�쓌,4.3,��
2021/06/26,13:00,0.624,0.919,0.588,1.120,0.808,0.370,0.645,0.603,��쓌,5.3,��
2021/06/26,13:10,0.622,0.919,0.587,1.120,0.806,0.370,0.647,0.603,��쓌,5.7,��
2021/06/26,13:20,0.622,0.918,0.586,1.120,0.806,0.370,0.647,0.603,��쓌,5.9,��
2021/06/26,13:30,0.622,0.919,0.586,1.122,0.806,0.370,0.648,0.600,��쓌,5.8,��
2021/06/26,13:40,0.623,0.920,0.588,1.122,0.807,0.370,0.647,0.603,��쓌,5.0,��
2021/06/26,13:50,0.621,0.920,0.587,1.123,0.809,0.369,0.648,0.604,��쓌,5.0,��
2021/06/26,14:00,0.622,0.920,0.588,1.122,0.807,0.370,0.648,0.601,��쓌,6.1,��
2021/06/26,14:10,0.622,0.919,0.588,1.122,0.807,0.369,0.647,0.603,��쓌,4.7,��
2021/06/26,14:20,0.623,0.918,0.588,1.123,0.806,0.368,0.647,0.603,��쓌,5.5,��
2021/06/26,14:30,0.621,0.918,0.587,1.121,0.808,0.369,0.647,0.603,��쓌,6.9,��
2021/06/26,14:40,0.623,0.919,0.587,1.121,0.806,0.370,0.647,0.604,��,5.7,��
2021/06/26,14:50,0.623,0.922,0.589,1.124,0.808,0.369,0.646,0.602,��쓌,5.9,��
2021/06/26,15:00,0.622,0.920,0.587,1.123,0.808,0.369,0.647,0.603,��쓌,5.7,��
2021/06/26,15:10,0.625,0.920,0.585,1.123,0.807,0.369,0.647,0.601,��쓌,5.9,��
2021/06/26,15:20,0.623,0.920,0.588,1.123,0.810,0.370,0.647,0.602,��쓌,5.7,��
2021/06/26,15:30,0.623,0.921,0.588,1.120,0.808,0.371,0.646,0.603,��,5.9,��
2021/06/26,15:40,0.624,0.918,0.589,1.122,0.807,0.370,0.647,0.603,��쓌,6.2,��
2021/06/26,15:50,0.624,0.921,0.587,1.123,0.806,0.369,0.647,0.602,��쓌,6.8,��
2021/06/26,16:00,0.623,0.921,0.588,1.124,0.808,0.370,0.647,0.601,��,6.1,��
2021/06/26,16:10,0.623,0.920,0.588,1.122,0.808,0.369,0.648,0.602,��,6.5,��
2021/06/26,16:20,0.622,0.923,0.586,1.121,0.810,0.370,0.647,0.602,��,6.3,��
2021/06/26,16:30,0.623,0.922,0.588,1.123,0.808,0.369,0.646,0.601,��쓌,6.6,��
2021/06/26,16:40,0.623,0.921,0.588,1.124,0.809,0.370,0.645,0.601,��쓌,6.9,��
2021/06/26,16:50,0.622,0.920,0.588,1.127,0.808,0.369,0.646,0.603,��쓌,7.6,��
2021/06/26,17:00,0.622,0.920,0.588,1.126,0.809,0.371,0.646,0.602,��,7.7,��
2021/06/26,17:10,0.624,0.919,0.587,1.126,0.808,0.369,0.647,0.602,��,7.6,��
2021/06/26,17:20,0.622,0.921,0.589,1.124,0.807,0.369,0.648,0.602,��,7.1,��
2021/06/26,17:30,0.623,0.921,0.589,1.127,0.808,0.369,0.649,0.604,��쓌,7.8,��
2021/06/26,17:40,0.622,0.921,0.590,1.128,0.809,0.371,0.649,0.604,��쓌,7.8,��
2021/06/26,17:50,0.622,0.919,0.589,1.126,0.811,0.370,0.648,0.602,��,8.6,��
2021/06/26,18:00,0.622,0.922,0.590,1.126,0.811,0.367,0.647,0.603,��,7.8,��
2021/06/26,18:10,0.623,0.922,0.590,1.126,0.808,0.369,0.649,0.604,��쓌,7.6,��
2021/06/26,18:20,0.622,0.920,0.588,1.128,0.810,0.369,0.647,0.606,��,6.8,��
2021/06/26,18:30,0.622,0.921,0.589,1.128,0.810,0.369,0.648,0.605,��,5.6,��
2021/06/26,18:40,0.622,0.922,0.591,1.127,0.809,0.370,0.648,0.606,��,6.1,��
2021/06/26,18:50,0.623,0.924,0.591,1.129,0.808,0.368,0.650,0.605,��,7.0,��
2021/06/26,19:00,0.623,0.921,0.590,1.129,0.808,0.369,0.647,0.605,��,6.7,��
2021/06/26,19:10,0.622,0.922,0.590,1.126,0.809,0.370,0.648,0.605,��,5.9,��
2021/06/26,19:20,0.623,0.922,0.589,1.127,0.809,0.372,0.650,0.605,��,5.5,��
2021/06/26,19:30,0.622,0.922,0.591,1.129,0.808,0.371,0.648,0.606,��,5.4,��
2021/06/26,19:40,0.623,0.922,0.592,1.128,0.809,0.370,0.648,0.605,��,5.5,��
2021/06/26,19:50,0.624,0.924,0.590,1.129,0.811,0.370,0.649,0.603,��,5.9,��
2021/06/26,20:00,0.623,0.926,0.591,1.128,0.813,0.369,0.648,0.605,��,5.6,��
2021/06/26,20:10,0.626,0.926,0.591,1.131,0.812,0.370,0.649,0.605,��,5.6,��
2021/06/26,20:20,0.624,0.924,0.590,1.126,0.810,0.371,0.649,0.606,��,5.6,��
2021/06/26,20:30,0.625,0.925,0.590,1.127,0.810,0.371,0.648,0.605,��쐼,5.3,��
2021/06/26,20:40,0.624,0.926,0.590,1.126,0.814,0.371,0.649,0.604,��,4.2,��
2021/06/26,20:50,0.626,0.924,0.592,1.127,0.809,0.371,0.649,0.604,��쐼,5.0,��
2021/06/26,21:00,0.625,0.925,0.590,1.130,0.811,0.372,0.649,0.605,��,0.9,��
2021/06/26,21:10,0.624,0.924,0.592,1.129,0.813,0.372,0.650,0.605,��쐼,1.1,��
2021/06/26,21:20,0.626,0.926,0.592,1.131,0.811,0.372,0.649,0.605,��쐼,1.1,��
2021/06/26,21:30,0.626,0.926,0.592,1.128,0.811,0.371,0.650,0.605,��쐼,0.8,��
2021/06/26,21:40,0.625,0.926,0.592,1.129,0.812,0.372,0.649,0.606,��,0.6,��
2021/06/26,21:50,0.624,0.926,0.592,1.130,0.812,0.372,0.650,0.605,��,1.5,��
2021/06/26,22:00,0.627,0.926,0.591,1.128,0.813,0.372,0.647,0.604,��,1.4,��
2021/06/26,22:10,0.625,0.927,0.591,1.130,0.811,0.371,0.649,0.605,��,1.5,��
2021/06/26,22:20,0.625,0.927,0.591,1.129,0.814,0.372,0.649,0.605,��,2.0,��
2021/06/26,22:30,0.626,0.926,0.591,1.127,0.811,0.373,0.650,0.605,��,2.9,��
2021/06/26,22:40,0.626,0.925,0.591,1.130,0.812,0.372,0.649,0.606,��,3.2,��
2021/06/26,22:50,0.628,0.924,0.591,1.129,0.812,0.373,0.650,0.606,��,4.9,��
2021/06/26,23:00,0.626,0.926,0.593,1.129,0.814,0.372,0.649,0.606,��,4.7,��
2021/06/26,23:10,0.626,0.924,0.590,1.128,0.814,0.372,0.650,0.605,��,5.1,��
2021/06/26,23:20,0.626,0.928,0.591,1.128,0.814,0.371,0.649,0.605,��,4.8,��
2021/06/26,23:30,0.625,0.926,0.590,1.128,0.813,0.372,0.648,0.606,��,5.2,��
2021/06/26,23:40,0.625,0.927,0.591,1.127,0.812,0.371,0.648,0.603,��,6.4,��
2021/06/26,23:50,0.626,0.925,0.590,1.129,0.812,0.372,0.649,0.606,��,6.7,��
